CW2939 Malaga ES current weather conditions

sailwx.info

Wind from 272

Air temperature 25.0° C
Dewpoint 15.6° C

Last reported at 2019-Jun-24 07:59 UTC.
Time now 2019-Jun-24 09:04 UTC

Location: N 36°52' W 004°09'.
View on Google Maps.

See reports from other nearby stations

  
Tides and Currents Weather Stations Pressure Air Temp Water Temp Dewpoint Dewpoint Depression Visibility Wind Speed Wind Dir Waves Ship Positions
date/time (UTC)wind fromknots sea level pressurealtimeterstation pressurevisibilityair tempwater tempwave heightnotes
2019-Jun-24 08:04 271 25.6
2019-Jun-24 07:59 272 25.0
2019-Jun-24 07:54 272 0 gusting 2 24.4
2019-Jun-24 07:49 272 23.9
2019-Jun-24 07:39 272 23.3
2019-Jun-24 07:34 272 23.3
2019-Jun-24 07:29 272 22.8
2019-Jun-24 07:24 272 22.8
2019-Jun-24 07:09 271 22.2
2019-Jun-24 07:04 271 21.7
2019-Jun-24 06:59 271 21.7
2019-Jun-24 06:54 271 0 gusting 1 21.1
2019-Jun-24 06:39 271 0 gusting 2 20.0
2019-Jun-24 06:34 271 1 gusting 2 20.0
2019-Jun-24 06:29 271 1 gusting 2 19.4
2019-Jun-24 06:19 271 2 gusting 4 19.4
2019-Jun-24 06:09 267 2 gusting 5 18.9
2019-Jun-24 06:04 262 18.3
2019-Jun-24 05:59 262 18.3
2019-Jun-24 05:54 262 18.3
2019-Jun-24 05:44 262 18.3
2019-Jun-24 05:39 262 17.8
2019-Jun-24 05:34 262 1 gusting 2 17.8
2019-Jun-24 05:29 262 1 gusting 2 17.8
2019-Jun-24 05:24 262 1 gusting 2 17.8
2019-Jun-24 05:19 262 2 gusting 4 17.8
2019-Jun-24 05:14 265 2 gusting 2 17.8
2019-Jun-24 05:09 265 1 gusting 2 17.8
2019-Jun-24 05:04 265 17.8
2019-Jun-24 04:54 265 17.8
2019-Jun-24 04:39 265 17.8
2019-Jun-24 04:29 265 17.8
2019-Jun-24 04:19 265 17.8
2019-Jun-24 04:09 265 1 gusting 2 17.8
2019-Jun-24 03:59 265 17.8
2019-Jun-24 03:54 265 17.8
2019-Jun-24 03:49 265 1 gusting 4 17.8
2019-Jun-24 03:44 263 0 gusting 2 17.8
2019-Jun-24 03:39 263 2 gusting 4 17.8
2019-Jun-24 03:34 263 2 gusting 5 17.8
2019-Jun-24 03:29 207 2 gusting 4 17.8
2019-Jun-24 03:24 204 2 gusting 2 17.8
2019-Jun-24 03:19 203 17.8
2019-Jun-24 03:09 203 17.8
2019-Jun-24 02:54 203 17.8
2019-Jun-24 02:49 203 17.8
2019-Jun-24 02:44 203 17.8
2019-Jun-24 02:39 203 17.8
2019-Jun-24 02:34 203 17.8
2019-Jun-24 02:24 203 17.8
2019-Jun-24 02:09 203 17.8
2019-Jun-24 01:59 203 18.3
2019-Jun-24 01:54 203 18.3
2019-Jun-24 01:49 202 18.3
2019-Jun-24 01:44 202 1 gusting 4 18.3
2019-Jun-24 01:39 197 2 gusting 4 18.3
2019-Jun-24 01:34 187 1 gusting 2 18.3
2019-Jun-24 01:29 185 0 gusting 2 18.3
2019-Jun-24 01:24 183 1 gusting 2 18.3
2019-Jun-24 01:19 182 18.3
2019-Jun-24 01:04 182 18.3
2019-Jun-24 00:59 182 18.3
2019-Jun-24 00:54 182 18.9
2019-Jun-24 00:49 182 18.9
2019-Jun-24 00:44 180 18.9
2019-Jun-24 00:29 180 18.9
2019-Jun-24 00:24 180 18.9
2019-Jun-23 23:59 180 2 gusting 2 18.9
2019-Jun-23 23:54 178 18.9
2019-Jun-23 23:49 178 18.9
2019-Jun-23 23:44 178 18.9
2019-Jun-23 23:39 178 19.4
2019-Jun-23 23:34 178 19.4
2019-Jun-23 23:24 178 0 gusting 2 19.4
2019-Jun-23 23:19 178 1 gusting 2 19.4
2019-Jun-23 23:14 177 1 gusting 2 19.4
2019-Jun-23 23:09 176 2 gusting 2 19.4
2019-Jun-23 23:04 174 0 gusting 2 19.4
2019-Jun-23 22:59 142 0 gusting 2 20.0
2019-Jun-23 22:44 141 20.0
2019-Jun-23 22:39 141 20.0
2019-Jun-23 22:29 141 20.6
2019-Jun-23 22:24 141 20.6
2019-Jun-23 22:09 141 1 gusting 2 20.6
2019-Jun-23 22:04 141 1 gusting 4 20.6
2019-Jun-23 21:59 141 2 gusting 4 20.6
2019-Jun-23 21:54 141 2 gusting 4 20.6
2019-Jun-23 21:44 140 2 gusting 2 20.6
2019-Jun-23 21:34 140 3 gusting 5 20.6
2019-Jun-23 21:29 140 2 gusting 4 20.6
2019-Jun-23 21:24 140 20.6
2019-Jun-23 21:19 140 20.6
2019-Jun-23 21:04 140 20.6
2019-Jun-23 20:59 140 20.6
2019-Jun-23 20:54 140 20.6
2019-Jun-23 20:49 140 20.6
2019-Jun-23 20:44 140 20.6
2019-Jun-23 20:39 140 21.1
2019-Jun-23 20:34 140 21.1
2019-Jun-23 20:24 140 21.1
2019-Jun-23 20:19 140 21.1
2019-Jun-23 20:14 140 21.1
2019-Jun-23 20:04 140 21.1
2019-Jun-23 19:59 140 21.7
2019-Jun-23 19:54 140 21.7
2019-Jun-23 19:49 140 0 gusting 2 21.7
2019-Jun-23 19:44 140 1 gusting 2 21.7
2019-Jun-23 19:39 140 2 gusting 4 21.7
2019-Jun-23 19:34 140 2 gusting 4 21.7
2019-Jun-23 19:29 140 2 gusting 2 21.7
2019-Jun-23 19:24 140 2 gusting 4 21.7
2019-Jun-23 19:19 140 4 gusting 5 21.7
2019-Jun-23 19:14 140 2 gusting 4 22.2
2019-Jun-23 19:09 139 2 gusting 4 22.2
2019-Jun-23 19:04 139 2 gusting 5 22.2
2019-Jun-23 18:59 140 2 gusting 5 22.2
2019-Jun-23 18:54 140 3 gusting 6 22.2
2019-Jun-23 18:49 138 4 gusting 6 22.2
2019-Jun-23 18:44 137 4 gusting 6 22.8
2019-Jun-23 18:39 135 4 gusting 10 22.8
2019-Jun-23 18:19 139 4 gusting 6 22.8
2019-Jun-23 18:14 140 6 gusting 8 22.8
2019-Jun-23 18:09 135 6 gusting 8 23.3
2019-Jun-23 18:04 143 5 gusting 7 23.3
2019-Jun-23 17:49 127 4 gusting 10 23.3
2019-Jun-23 17:39 135 6 gusting 10 23.3
2019-Jun-23 17:29 131 6 gusting 11 23.3
2019-Jun-23 17:19 122 6 gusting 7 23.9
2019-Jun-23 17:14 143 6 gusting 10 23.9
2019-Jun-23 17:09 115 6 gusting 10 23.9
2019-Jun-23 17:04 128 6 gusting 11 23.9
2019-Jun-23 16:54 127 5 gusting 8 23.9
2019-Jun-23 08:04 163 1 gusting 5 22.8
2019-Jun-23 07:54 142 4 gusting 7 22.2
2019-Jun-23 07:49 138 4 gusting 6 22.2
2019-Jun-23 07:44 140 3 gusting 6 22.2
2019-Jun-23 07:34 129 1 gusting 5 21.7
2019-Jun-23 07:29 128 4 gusting 7 21.7
2019-Jun-23 07:24 127 5 gusting 10 21.7
2019-Jun-23 07:19 145 5 gusting 6 21.7
2019-Jun-23 07:09 112 5 gusting 6 21.7
2019-Jun-23 07:04 304 2 gusting 4 21.1
2019-Jun-23 06:59 284 0 gusting 2 21.1
2019-Jun-23 06:54 285 20.6
2019-Jun-23 06:49 285 20.0
2019-Jun-23 06:34 285 18.9
2019-Jun-23 06:29 285 18.3
2019-Jun-23 06:24 285 18.3
2019-Jun-23 06:14 285 17.8
2019-Jun-23 06:09 285 17.8
2019-Jun-23 05:59 285 17.2
2019-Jun-23 05:54 285 17.2
2019-Jun-23 05:49 285 16.7
2019-Jun-23 05:44 285 16.7
2019-Jun-23 05:29 285 16.7
2019-Jun-23 05:24 285 16.7
2019-Jun-23 05:14 285 16.7
2019-Jun-23 05:09 285 0 gusting 2 16.7
2019-Jun-23 04:59 282 2 gusting 4 16.7
2019-Jun-23 04:54 279 1 gusting 2 16.7
2019-Jun-23 04:44 278 1 gusting 2 17.2
2019-Jun-23 04:39 277 2 gusting 4 17.2
2019-Jun-23 04:34 277 2 gusting 4 17.2
2019-Jun-23 04:14 275 17.2
2019-Jun-23 04:09 275 17.2
2019-Jun-23 04:04 275 17.2
2019-Jun-23 03:59 275 17.2
2019-Jun-23 03:49 275 17.2
2019-Jun-23 03:44 275 17.2
2019-Jun-23 03:29 275 17.2
2019-Jun-23 03:24 274 1 gusting 2 17.2
2019-Jun-23 03:19 273 0 gusting 2 17.2
2019-Jun-23 03:14 273 17.8
2019-Jun-23 03:09 273 0 gusting 2 17.8
2019-Jun-23 03:04 273 2 gusting 2 17.8
2019-Jun-23 02:59 271 2 gusting 4 17.8
2019-Jun-23 02:54 196 0 gusting 2 17.8
2019-Jun-23 02:49 193 0 gusting 2 17.8
2019-Jun-23 02:44 192 17.8
2019-Jun-23 02:34 192 17.8
2019-Jun-23 02:29 192 17.8
2019-Jun-23 02:24 192 17.8
2019-Jun-23 02:09 192 17.8
2019-Jun-23 02:04 192 17.8
2019-Jun-23 01:59 192 17.8
2019-Jun-23 01:54 192 17.8
2019-Jun-23 01:49 192 18.3
2019-Jun-23 01:34 192 18.3
2019-Jun-23 01:29 192 17.8
2019-Jun-23 01:19 192 17.8
2019-Jun-23 01:14 192 18.3
2019-Jun-23 01:09 192 18.3
2019-Jun-23 01:04 192 18.3
2019-Jun-23 00:54 192 18.3
2019-Jun-23 00:49 192 18.3
2019-Jun-23 00:44 192 18.3
2019-Jun-23 00:29 192 18.3
2019-Jun-23 00:19 192 18.9
2019-Jun-23 00:09 192 18.9
2019-Jun-22 23:59 192 18.9
2019-Jun-22 23:54 192 18.9
2019-Jun-22 23:49 192 1 gusting 2 18.9
2019-Jun-22 23:44 192 0 gusting 2 18.9
2019-Jun-22 23:39 192 2 gusting 2 19.4
2019-Jun-22 23:34 192 19.4
2019-Jun-22 23:29 192 19.4
2019-Jun-22 23:19 192 19.4
2019-Jun-22 23:14 192 19.4
2019-Jun-22 23:09 192 19.4
2019-Jun-22 23:04 192 19.4
2019-Jun-22 22:59 192 19.4
2019-Jun-22 22:54 192 19.4
2019-Jun-22 22:49 192 19.4
2019-Jun-22 22:44 192 19.4
2019-Jun-22 22:39 192 19.4
2019-Jun-22 22:29 192 19.4
2019-Jun-22 22:19 192 18.9
2019-Jun-22 22:09 192 18.9
2019-Jun-22 22:04 192 18.9
2019-Jun-22 21:59 192 18.9
2019-Jun-22 21:54 192 18.9
2019-Jun-22 21:49 192 18.9
2019-Jun-22 21:44 192 18.9
2019-Jun-22 21:39 192 18.9
2019-Jun-22 21:29 192 18.9
2019-Jun-22 21:24 192 18.9
2019-Jun-22 21:09 192 18.9
2019-Jun-22 20:49 192 19.4
2019-Jun-22 20:39 192 19.4
2019-Jun-22 20:14 192 20.0
2019-Jun-22 20:04 192 20.6
2019-Jun-22 19:54 192 20.6
2019-Jun-22 19:49 192 20.6
2019-Jun-22 19:39 192 21.1
2019-Jun-22 19:34 192 21.1
2019-Jun-22 19:29 192 21.1
2019-Jun-22 19:19 190 1 gusting 2 21.1
2019-Jun-22 18:54 154 0 gusting 4 21.1
2019-Jun-22 18:49 154 21.1
2019-Jun-22 18:44 154 1 gusting 6 21.1
2019-Jun-22 18:24 143 2 gusting 6 21.7
2019-Jun-22 18:19 145 4 gusting 6 21.7
2019-Jun-22 18:14 156 2 gusting 6 21.7
2019-Jun-22 17:59 240 0 gusting 10 21.7
2019-Jun-22 17:49 164 4 gusting 11 21.1
2019-Jun-22 17:44 141 6 gusting 8 21.7
2019-Jun-22 17:39 138 6 gusting 10 21.7
2019-Jun-22 17:34 161 3 gusting 10 21.7
2019-Jun-22 17:24 132 6 gusting 13 22.2
2019-Jun-22 17:19 144 6 gusting 13 22.8
2019-Jun-22 17:14 133 7 gusting 13 22.8
2019-Jun-22 16:59 163 2 gusting 12 23.9
2019-Jun-22 16:44 135 1 gusting 4 24.4
2019-Jun-22 16:34 139 4 gusting 7 24.4
2019-Jun-22 16:29 112 2 gusting 8 24.4
2019-Jun-22 16:19 135 6 gusting 11 25.0
2019-Jun-22 16:14 133 1 gusting 11 25.0
2019-Jun-22 16:09 130 6 gusting 11 25.0
2019-Jun-22 16:04 140 5 gusting 12 25.0
2019-Jun-22 15:59 144 4 gusting 7 25.0
2019-Jun-22 15:54 140 4 gusting 13 25.0
2019-Jun-22 15:49 137 5 gusting 10 25.0
2019-Jun-22 15:44 144 4 gusting 10 25.0
2019-Jun-22 15:39 145 5 gusting 8 25.6
2019-Jun-22 15:34 115 5 gusting 8 25.6
2019-Jun-22 15:29 121 3 gusting 10 25.6
2019-Jun-22 15:24 135 6 gusting 10 25.6
2019-Jun-22 15:19 126 6 gusting 11 25.6
2019-Jun-22 15:09 176 2 gusting 7 25.6
2019-Jun-22 14:54 139 5 gusting 8 25.0
2019-Jun-22 14:49 132 2 gusting 10 25.0
2019-Jun-22 14:44 132 5 gusting 12 25.0
2019-Jun-22 14:39 130 4 gusting 10 25.0
2019-Jun-22 14:29 124 4 gusting 10 26.1
2019-Jun-22 14:24 179 2 gusting 10 26.1
2019-Jun-22 14:19 136 4 gusting 10 26.1
2019-Jun-22 14:14 110 2 gusting 10 26.1
2019-Jun-22 14:09 177 2 gusting 8 26.1
2019-Jun-22 14:04 128 6 gusting 12 26.1
2019-Jun-22 13:59 171 2 gusting 6 26.1
2019-Jun-22 13:54 151 1 gusting 6 26.1
2019-Jun-22 13:49 137 7 gusting 12 26.7
2019-Jun-22 13:44 175 2 gusting 11 26.7
2019-Jun-22 13:39 099 4 gusting 11 26.7
2019-Jun-22 13:34 068 1 gusting 6 26.7
2019-Jun-22 13:24 163 0 gusting 10 26.1
2019-Jun-22 13:19 227 2 gusting 12 26.1
2019-Jun-22 13:04 179 2 gusting 10 26.7
2019-Jun-22 12:54 137 4 gusting 12 26.1
2019-Jun-22 12:34 162 4 gusting 11 25.6
2019-Jun-22 12:24 180 6 gusting 13 25.0
2019-Jun-22 12:19 197 4 gusting 7 25.6
2019-Jun-22 12:14 189 5 gusting 13 25.0
2019-Jun-22 12:09 138 4 gusting 15 25.6
2019-Jun-22 12:04 136 4 gusting 15 25.6
2019-Jun-22 11:59 136 6 gusting 15 25.6